[{"OBJECT_NAME":"GPS BIII-3  (PRN 23)","OBJECT_ID":"2020-041A","EPOCH":"2026-09-12T04:54:28.876896","MEAN_MOTION":2.0056608,"ECCENTRICITY":0.0067432,"INCLINATION":56.7252,"RA_OF_ASC_NODE":25.574,"ARG_OF_PERICENTER":205.404,"MEAN_ANOMALY":308.9873,"EPHEMERIS_TYPE":0,"CLASSIFICATION_TYPE":"U","NORAD_CAT_ID":45854,"ELEMENT_SET_NO":999,"REV_AT_EPOCH":4578,"BSTAR":0,"MEAN_MOTION_DOT":-9.5e-7,"MEAN_MOTION_DDOT":0},{"OBJECT_NAME":"GPS BIII-4  (PRN 14)","OBJECT_ID":"2020-078A","EPOCH":"2026-09-11T12:24:33.881184","MEAN_MOTION":2.00565053,"ECCENTRICITY":0.00760655,"INCLINATION":53.9683,"RA_OF_ASC_NODE":207.2798,"ARG_OF_PERICENTER":208.4421,"MEAN_ANOMALY":149.1755,"EPHEMERIS_TYPE":0,"CLASSIFICATION_TYPE":"U","NORAD_CAT_ID":46826,"ELEMENT_SET_NO":999,"REV_AT_EPOCH":4323,"BSTAR":0,"MEAN_MOTION_DOT":-1.2e-7,"MEAN_MOTION_DDOT":0},{"OBJECT_NAME":"GPS BIII-5  (PRN 11)","OBJECT_ID":"2021-054A","EPOCH":"2026-09-11T06:14:48.999840","MEAN_MOTION":2.00563701,"ECCENTRICITY":0.00284399,"INCLINATION":55.1268,"RA_OF_ASC_NODE":328.9967,"ARG_OF_PERICENTER":230.5018,"MEAN_ANOMALY":127.7457,"EPHEMERIS_TYPE":0,"CLASSIFICATION_TYPE":"U","NORAD_CAT_ID":48859,"ELEMENT_SET_NO":999,"REV_AT_EPOCH":3847,"BSTAR":0,"MEAN_MOTION_DOT":-9e-7,"MEAN_MOTION_DDOT":0},{"OBJECT_NAME":"GPS BIII-6  (PRN 28)","OBJECT_ID":"2023-009A","EPOCH":"2026-09-11T11:00:38.553120","MEAN_MOTION":2.00565475,"ECCENTRICITY":0.00055413,"INCLINATION":55.1273,"RA_OF_ASC_NODE":145.1261,"ARG_OF_PERICENTER":333.0185,"MEAN_ANOMALY":207.9019,"EPHEMERIS_TYPE":0,"CLASSIFICATION_TYPE":"U","NORAD_CAT_ID":55268,"ELEMENT_SET_NO":999,"REV_AT_EPOCH":2697,"BSTAR":0,"MEAN_MOTION_DOT":1.5e-7,"MEAN_MOTION_DDOT":0},{"OBJECT_NAME":"GPS BIII-7  (PRN 01)","OBJECT_ID":"2024-242A","EPOCH":"2026-09-09T04:39:03.588192","MEAN_MOTION":2.00573456,"ECCENTRICITY":0.00191759,"INCLINATION":54.8068,"RA_OF_ASC_NODE":330.773,"ARG_OF_PERICENTER":1.5951,"MEAN_ANOMALY":67.0727,"EPHEMERIS_TYPE":0,"CLASSIFICATION_TYPE":"U","NORAD_CAT_ID":62339,"ELEMENT_SET_NO":999,"REV_AT_EPOCH":1294,"BSTAR":0,"MEAN_MOTION_DOT":-8.8e-7,"MEAN_MOTION_DDOT":0},{"OBJECT_NAME":"GPS BIII-8  (PRN 21)","OBJECT_ID":"2025-116A","EPOCH":"2026-09-11T14:00:16.256736","MEAN_MOTION":2.00569574,"ECCENTRICITY":0.00089637,"INCLINATION":55.2912,"RA_OF_ASC_NODE":27.6605,"ARG_OF_PERICENTER":334.7276,"MEAN_ANOMALY":202.3499,"EPHEMERIS_TYPE":0,"CLASSIFICATION_TYPE":"U","NORAD_CAT_ID":64202,"ELEMENT_SET_NO":999,"REV_AT_EPOCH":960,"BSTAR":0,"MEAN_MOTION_DOT":-9.3e-7,"MEAN_MOTION_DDOT":0},{"OBJECT_NAME":"GPS BIII-9  (PRN 20)","OBJECT_ID":"2026-017A","EPOCH":"2026-09-11T22:44:12.094080","MEAN_MOTION":2.00568964,"ECCENTRICITY":0.00207414,"INCLINATION":55.1491,"RA_OF_ASC_NODE":85.2737,"ARG_OF_PERICENTER":263.1983,"MEAN_ANOMALY":96.6286,"EPHEMERIS_TYPE":0,"CLASSIFICATION_TYPE":"U","NORAD_CAT_ID":67588,"ELEMENT_SET_NO":999,"REV_AT_EPOCH":43335,"BSTAR":0,"MEAN_MOTION_DOT":2e-8,"MEAN_MOTION_DDOT":0},{"OBJECT_NAME":"GPS BIII-10 (PRN 13)","OBJECT_ID":"2026-087A","EPOCH":"2026-09-11T09:34:24.508128","MEAN_MOTION":2.00577427,"ECCENTRICITY":0.00213243,"INCLINATION":54.9553,"RA_OF_ASC_NODE":204.381,"ARG_OF_PERICENTER":102.991,"MEAN_ANOMALY":67.7109,"EPHEMERIS_TYPE":0,"CLASSIFICATION_TYPE":"U","NORAD_CAT_ID":68791,"ELEMENT_SET_NO":999,"REV_AT_EPOCH":256,"BSTAR":0,"MEAN_MOTION_DOT":-1.2e-7,"MEAN_MOTION_DDOT":0}]